Location: Unspecified
(0.0000°N, 0.0000°E)
Time: 05:22:01
(UTC+00:00)

Tiros 1 despin weight - Pass Details

Date: 02 October 2020
Orbit: 594 x 641 km, 48.2° (Epoch: 28 October)

Event Time Altitude Azimuth Distance (km) Brightness Sun altitude
Rises 06:23:02 0° 199° (SSW) 2,832 ? 8.4°
Reaches altitude 10° 06:25:37 10° 186° (S) 1,924 ? 9.1°
Maximum altitude 06:29:18 26° 130° (SE) 1,186 ? 10.0°
Drops below altitude 10° 06:32:57 10° 73° (ENE) 1,915 ? 10.9°
Sets 06:35:31 0° 60° (ENE) 2,815 ? 11.5°
